Temperature
9 9 9 9 8 8 8 8 8 9 10 10 10 9 10 10 9 9 8 8 8 8 7 7 7 7 7 7 7 7 7 7 7 7 6 6 6 6 6 6 6 6 5 5
7 8 8 8 8 8 8 8 8 9 9 10 10 10 10 9 9 9 8 8 7 7 7 7 7 7 7 7 7 7 7 6 6 6 6 6 6 6 5 5 5 5 5 5
6 8 7 6 8 8 8 8 8 8 9 9 9 9 9 9 9 8 8 7 7 7 6 6 6 6 6 6 6 6 6 6 6 6 5 5 5 5 5 5 5 4 4 4
6 7 6 9 9 10 9 8 8 9 9 9 9 9 9 8 8 8 7 7 7 6 6 6 6 6 6 6 5 5 5 5 5 5 5 5 5 4 4 4 4 4 4 4
6 6 7 9 8 9 8 7 8 8 8 8 8 8 8 8 8 7 7 7 6 6 6 6 6 5 5 5 5 5 5 5 4 4 4 4 4 4 4 3 3 3 3 3
5 6 6 9 8 9 8 7 8 8 8 7 7 5 6 7 7 7 7 6 6 6 6 5 5 5 5 5 4 4 4 4 4 4 4 3 3 3 3 3 3 3 3 3
4 5 6 8 7 7 7 7 8 8 8 7 6 6 7 7 6 6 6 6 5 5 5 5 5 4 4 4 4 4 4 3 3 3 3 3 3 3 3 2 2 2 2 2
4 4 5 6 6 6 7 7 7 7 7 7 6 6 6 6 5 5 5 5 5 5 4 4 4 4 4 4 3 3 3 3 3 3 3 2 2 2 2 2 2 2 2 2
5 6 7 7 7 7 7 7 7 6 6 6 6 5 5 5 5 4 4 4 4 4 3 3 3 3 3 3 3 2 2 2 2 2 2 2 2 2 2 1 1 1 1 1
5 6 7 7 7 7 7 6 6 6 6 5 5 5 4 4 4 4 3 3 3 3 3 3 3 3 2 2 2 2 2 2 2 2 2 2 1 1 1 1 1 0 0 0
4 5 6 6 6 6 6 5 5 5 5 4 4 4 4 3 3 3 3 3 3 2 2 2 2 2 2 1 1 1 1 1 1 1 1 1 1 0 0 0 -0 -0 -0 -0
4 5 5 5 6 5 5 5 4 4 4 4 3 3 3 3 2 2 2 2 2 2 2 2 2 1 1 1 1 1 1 1 1 1 0 0 0 0 -0 -0 -0 -1 -1 -1
5 5 5 5 5 4 4 4 3 3 3 3 3 2 2 2 2 2 2 1 1 1 1 1 1 1 1 1 0 0 0 0 0 0 -0 -0 -0 -1 -1 -1 -1 -1 -1 -1
4 4 4 3 3 3 3 3 2 2 2 2 2 1 1 1 1 1 1 1 1 1 1 0 0 0 0 0 -0 -0 -0 -0 -0 -1 -1 -1 -1 -1 -1 -1 -1 -1 -1 -1
3 3 3 2 2 2 2 2 1 1 1 1 1 1 1 1 1 1 0 0 0 0 -0 -0 -0 -0 -0 -0 -1 -1 -1 -1 -1 -1 -1 -1 -2 -2 -2 -2 -2 -2 -2 -1
2 2 2 1 1 1 1 1 1 1 0 0 0 0 0 0 0 -0 -0 -0 -0 -0 -0 -1 -1 -1 -1 -1 -1 -1 -1 -1 -2 -2 -2 -2 -2 -2 -2 -2 -3 -3 -2 -2
1 0 0 0 0 0 1 0 0 0 0 -0 -0 -0 -0 -0 -0 -0 -0 -0 -1 -1 -1 -1 -1 -1 -1 -1 -1 -2 -2 -2 -2 -2 -2 -2 -3 -3 -3 -3 -3 -3 -3 -3
0 0 0 -0 -0 0 0 0 -0 -0 -0 -0 -0 -0 -1 -1 -1 -1 -1 -1 -1 -1 -1 -1 -1 -1 -2 -2 -2 -2 -2 -2 -2 -2 -3 -3 -3 -3 -3 -3 -3 -3 -3 -3
-0 -0 -0 -0 -0 -0 -0 -0 -0 -1 -1 -1 -1 -1 -1 -1 -1 -1 -1 -1 -2 -2 -1 -1 -2 -2 -2 -2 -2 -2 -2 -2 -3 -3 -3 -3 -3 -3 -4 -4 -4 -4 -4 -4
-1 -1 -1 -1 -1 -1 -1 -1 -1 -1 -1 -1 -1 -1 -1 -2 -2 -2 -2 -2 -2 -2 -2 -2 -2 -2 -2 -2 -2 -3 -3 -3 -3 -3 -3 -4 -4 -4 -4 -4 -4 -4 -5 -4
-1 -1 -1 -1 -1 -1 -1 -1 -1 -1 -1 -1 -2 -2 -2 -2 -2 -2 -2 -2 -2 -2 -2 -3 -3 -3 -3 -3 -3 -3 -3 -3 -4 -4 -4 -4 -4 -4 -5 -5 -5 -5 -5 -5
-2 -2 -1 -1 -1 -2 -2 -2 -2 -2 -2 -2 -2 -2 -2 -2 -2 -3 -3 -3 -2 -3 -3 -3 -3 -3 -3 -3 -3 -4 -4 -4 -4 -4 -4 -5 -5 -5 -5 -5 -5 -5 -5 -5
-2 -2 -2 -2 -2 -2 -2 -2 -2 -3 -3 -3 -3 -3 -3 -3 -3 -3 -3 -3 -3 -3 -3 -3 -3 -3 -4 -4 -4 -4 -4 -4 -4 -5 -5 -5 -5 -5 -5 -5 -5 -5 -5 -5
-2 -2 -2 -2 -3 -3 -3 -3 -3 -3 -3 -3 -3 -3 -3 -3 -3 -3 -3 -3 -4 -4 -4 -4 -4 -4 -4 -4 -4 -4 -4 -5 -5 -5 -5 -5 -5 -5 -5 -5 -5 -6 -6 -6
-3 -3 -3 -3 -3 -3 -3 -3 -3 -3 -3 -3 -3 -3 -4 -4 -4 -4 -4 -4 -4 -4 -4 -4 -4 -4 -4 -4 -5 -5 -5 -5 -5 -5 -5 -5 -5 -5 -5 -6 -6 -6 -6 -6
-3 -3 -3 -3 -3 -3 -4 -4 -4 -4 -4 -4 -4 -4 -4 -4 -4 -5 -5 -5 -5 -5 -5 -5 -5 -5 -5 -5 -5 -5 -5 -5 -5 -6 -6 -6 -6 -6 -6 -6 -6 -6 -6 -6
-4 -4 -4 -4 -4 -4 -4 -4 -4 -4 -4 -5 -5 -5 -5 -5 -5 -5 -5 -5 -5 -5 -5 -5 -5 -5 -5 -5 -5 -5 -5 -6 -6 -6 -6 -6 -6 -6 -6 -6 -6 -6 -6 -6
Wind_Speed
9 8 7 9 9 9 11 10 8 7 7 6 3 3 3 3 3 3 3 3 3 3 2 2 2 2 2 1 1 1 2 2 3 3 3 3 3 3 4 4 4 5 5 5
8 8 8 11 12 12 12 12 12 12 11 5 1 0 1 2 3 3 3 3 3 3 2 2 2 2 1 1 1 1 2 3 3 3 3 3 3 4 4 4 4 4 5 5
6 3 6 10 11 12 8 8 8 10 8 3 1 1 2 2 2 2 2 2 3 3 3 2 2 2 2 2 1 2 2 3 3 3 3 4 4 4 4 5 5 5 5 6
5 4 9 7 1 6 8 8 8 6 3 1 2 2 2 1 2 2 2 2 2 2 2 2 2 2 1 1 1 2 3 3 3 3 3 4 4 5 5 5 5 5 6 6
4 6 9 5 3 4 5 6 7 7 5 2 0 1 2 1 1 1 2 2 2 2 2 2 2 2 1 1 2 2 3 3 3 2 3 4 5 5 5 4 5 5 5 6
5 6 7 3 3 2 2 5 3 4 4 2 2 1 3 1 1 0 1 1 1 1 0 1 2 2 2 2 3 3 3 3 3 3 4 5 5 5 4 4 5 6 6 6
9 8 7 1 4 5 4 4 2 2 3 3 4 4 1 1 1 1 0 0 1 1 1 2 1 1 2 3 3 3 2 2 3 4 5 5 5 4 5 5 5 6 7 7
7 8 9 4 5 5 4 1 1 1 1 1 1 0 1 0 0 1 1 1 1 1 1 1 1 2 3 4 3 2 2 3 4 5 4 4 4 5 5 5 6 6 7 7
8 8 2 5 4 2 0 0 0 0 1 1 1 2 2 2 2 2 2 2 1 1 2 2 2 2 3 4 2 2 3 4 5 5 4 4 5 5 5 5 5 6 6 6
5 5 4 4 4 3 2 2 1 1 2 2 4 3 3 3 3 3 2 2 1 2 2 3 2 2 3 3 2 2 4 5 5 4 5 4 4 4 4 5 5 6 6 6
8 6 5 5 4 4 3 2 1 2 3 3 4 4 4 4 4 3 3 2 2 3 3 4 3 3 3 2 2 3 4 5 4 4 4 4 5 5 6 6 6 7 6 6
9 6 5 4 3 2 2 3 3 4 4 3 3 4 4 4 4 3 3 2 2 3 3 3 2 3 3 3 3 4 4 4 4 4 4 4 5 6 8 10 12 13 13 11
9 6 5 5 4 2 3 3 3 3 4 4 3 3 4 4 3 3 3 3 3 4 4 4 4 4 4 3 3 4 5 5 4 4 4 4 5 6 7 8 10 13 14 15
5 4 6 5 4 3 3 3 2 3 3 4 4 4 3 4 3 3 4 4 4 4 4 4 4 5 4 4 4 5 5 6 6 5 5 5 5 6 6 7 8 7 9 13
5 4 4 4 3 3 3 2 3 4 4 4 4 4 4 4 5 5 5 4 4 4 5 5 5 6 4 3 4 5 5 5 5 5 5 5 6 6 6 7 8 8 8 8
4 4 4 4 5 4 4 4 4 5 5 5 5 5 5 5 6 5 5 5 5 6 6 6 6 6 5 4 5 5 5 8 7 5 5 6 6 6 7 7 8 8 8 8
3 4 4 4 5 6 5 5 6 6 6 6 6 5 5 5 5 6 6 6 6 7 6 6 7 6 5 5 5 5 5 6 8 6 6 6 6 7 7 7 8 8 8 9
4 5 5 5 5 6 6 5 6 6 6 6 5 4 5 6 7 7 6 5 5 6 7 7 7 6 6 6 5 5 5 5 5 6 6 6 7 7 7 8 8 10 9 9
3 4 4 4 4 5 5 5 5 5 5 5 5 6 6 6 6 6 6 5 6 8 8 7 8 7 7 7 7 5 6 6 7 7 6 9 10 7 7 8 9 9 8 8
3 3 3 4 4 4 5 5 6 5 5 5 5 5 6 6 6 6 6 7 7 7 7 7 6 6 7 7 8 5 6 7 7 7 7 7 8 8 8 8 8 8 8 8
4 4 4 4 5 5 5 5 5 5 5 5 5 6 7 7 6 6 6 8 8 7 7 9 6 6 6 7 8 5 6 7 7 7 7 7 8 8 8 8 8 8 8 8
4 4 5 4 4 5 5 4 4 5 5 5 5 6 6 7 7 7 8 8 8 9 6 6 6 8 9 8 5 6 6 7 7 7 7 8 8 8 8 8 8 8 8 7
4 5 5 5 5 5 5 4 5 5 5 6 6 7 7 7 6 6 8 7 6 9 7 6 8 11 12 8 6 6 7 8 8 8 8 8 8 8 8 9 8 8 8 8
5 5 5 5 5 5 6 7 6 5 6 7 7 7 7 6 7 7 7 9 10 11 7 9 12 14 12 6 6 7 7 8 8 8 8 8 8 8 8 8 8 8 8 8
6 6 6 6 6 6 7 7 6 6 6 6 7 7 6 6 7 7 6 7 10 10 7 10 14 14 9 6 7 7 8 8 8 7 7 8 8 8 8 8 8 8 7 7
6 6 6 7 6 6 5 5 5 5 5 6 6 5 5 5 6 7 6 7 9 11 8 7 8 9 7 7 7 8 8 8 10 9 8 8 8 8 7 7 9 8 7 7
6 6 6 6 6 6 5 5 6 7 6 7 8 6 6 5 6 6 7 7 7 7 7 7 7 6 7 7 7 7 7 7 7 8 7 7 7 7 7 8 7 7 7 7
Wind_Direction
266 273 267 258 249 232 225 227 236 259 265 262 235 208 201 187 177 157 158 162 167 168 167 163 165 165 164 175 170 179 214 234 240 245 251 253 256 257 253 247 247 246 245 245
270 251 255 263 252 240 240 239 246 264 273 271 266 135 194 191 191 195 193 184 174 172 171 175 180 183 196 199 194 201 232 245 247 251 259 258 259 263 264 258 255 254 252 248
269 254 285 264 237 218 219 218 220 237 245 255 262 242 231 220 213 212 205 181 181 196 197 198 201 202 217 217 208 222 242 252 253 253 260 264 265 265 265 263 259 255 254 252
273 290 251 243 181 190 209 231 227 237 248 247 253 261 243 206 212 216 194 184 193 202 208 214 209 218 216 213 225 237 249 258 256 256 263 266 265 260 258 258 259 258 257 254
241 257 269 251 205 179 198 249 230 231 238 239 175 342 287 253 202 206 193 187 192 196 204 200 204 210 202 229 240 246 253 259 265 265 269 268 265 265 263 262 263 261 260 257
227 242 251 256 143 117 127 259 221 198 214 199 120 233 259 345 39 64 128 114 140 160 184 217 227 194 201 237 241 246 248 257 266 260 259 262 265 270 270 265 263 264 265 260
232 242 260 242 135 124 184 242 155 171 198 196 203 219 221 56 31 31 61 157 156 180 223 233 223 184 224 244 245 244 245 258 260 254 253 257 263 267 269 269 270 269 269 266
212 228 247 156 147 184 213 121 96 107 182 194 205 251 348 358 309 299 274 242 205 216 248 250 228 218 243 252 255 251 252 259 258 254 255 258 259 266 267 267 268 270 270 272
206 221 240 164 181 214 95 105 95 222 285 234 250 258 261 256 254 254 246 238 225 226 251 257 235 218 244 258 253 253 257 260 261 260 256 252 252 259 265 265 264 266 267 272
255 247 242 227 234 248 244 232 247 254 266 254 253 250 257 261 260 257 250 244 233 235 250 261 256 246 248 257 252 247 256 262 263 261 263 261 255 253 255 260 265 268 269 272
258 263 275 260 251 250 249 242 268 271 259 256 257 263 266 271 268 257 251 245 238 236 246 257 262 264 265 256 249 255 260 263 267 264 262 265 263 255 256 252 251 260 264 266
252 244 241 262 275 255 253 254 253 259 264 261 251 263 269 265 262 256 250 248 254 253 255 263 267 271 269 260 249 253 263 267 267 269 268 268 275 281 265 258 266 264 262 264
257 275 282 288 292 286 256 254 253 251 256 265 264 260 262 263 264 260 253 245 249 253 255 259 261 263 263 260 253 252 257 264 267 267 266 271 276 278 288 286 271 268 268 269
270 279 280 277 276 274 269 267 264 263 261 261 261 258 257 261 263 255 247 244 247 253 254 252 253 258 257 252 249 254 258 262 263 261 262 266 270 272 274 283 292 289 278 273
265 255 260 276 281 278 271 262 263 264 263 259 252 247 246 247 249 251 251 246 246 248 249 249 253 260 257 248 250 257 261 263 262 263 263 263 265 269 271 273 277 282 287 284
262 257 251 252 254 259 254 245 246 253 254 254 248 241 239 240 245 250 247 236 236 244 248 249 256 260 253 246 251 257 257 262 266 268 269 270 269 269 270 271 274 277 279 280
243 245 245 250 252 255 246 239 241 246 251 251 249 244 240 242 247 247 244 239 238 244 245 246 254 258 251 245 246 252 255 262 265 268 264 266 268 269 270 271 273 275 274 275
240 243 243 246 250 255 255 251 249 249 249 250 250 245 242 240 244 249 250 248 253 260 256 248 249 252 250 245 243 245 250 257 258 260 265 267 270 267 270 272 274 276 279 281
258 261 260 256 254 252 252 254 257 256 255 250 244 243 245 248 249 253 255 253 254 264 265 253 250 249 249 247 245 242 245 253 259 261 261 271 276 270 268 270 272 274 277 279
268 267 269 271 264 251 249 251 252 252 248 240 240 246 252 254 251 252 253 254 251 252 257 257 254 250 248 248 246 241 245 252 258 263 264 264 268 271 271 270 272 274 275 276
278 275 269 265 264 258 250 248 246 249 249 237 235 242 250 254 251 248 253 267 268 256 256 258 254 250 248 247 247 241 244 250 256 260 263 266 269 271 271 271 272 273 275 275
278 274 270 267 268 273 269 257 248 249 254 252 249 249 254 260 259 257 249 253 264 265 262 256 252 253 254 255 243 243 248 253 258 260 261 262 266 270 271 271 271 273 273 273
271 270 268 264 262 268 278 270 260 257 256 254 252 252 253 256 253 258 271 265 257 263 262 256 259 263 266 262 251 250 254 256 259 259 260 262 264 266 268 270 271 273 274 273
275 273 270 270 271 273 273 270 262 257 255 257 255 251 252 262 266 256 255 269 271 271 266 266 271 273 275 264 254 254 257 258 259 258 259 262 263 264 265 268 270 272 272 270
272 272 272 270 267 265 264 265 265 262 260 262 261 255 249 245 254 265 263 263 270 274 271 274 277 278 273 260 256 257 258 259 261 261 258 261 262 264 266 266 268 270 270 270
265 266 264 259 257 261 262 262 265 265 264 270 272 264 257 255 256 262 265 264 263 271 271 269 269 271 263 259 258 259 260 267 271 268 262 262 263 263 265 265 266 267 268 268
267 265 267 270 268 260 257 256 260 264 262 265 273 273 269 268 267 267 268 268 269 268 268 268 265 262 262 261 262 262 262 262 262 262 262 263 264 264 264 264 266 268 268 268
Height
1490 1487 1487 1487 1487 1487 1489 1489 1489 1480 1476 1472 1472 1473 1474 1475 1476 1477 1477 1478 1478 1479 1480 1480 1481 1481 1481 1481 1482 1482 1481 1481 1481 1481 1480 1480 1480 1479 1479 1478 1478 1477 1477 1476
1491 1485 1485 1484 1481 1481 1481 1480 1478 1476 1474 1469 1469 1470 1471 1473 1474 1475 1475 1476 1476 1477 1477 1478 1478 1479 1479 1479 1479 1478 1478 1478 1477 1477 1476 1476 1476 1475 1474 1473 1473 1472 1472 1471
1491 1483 1484 1482 1470 1472 1472 1470 1471 1473 1470 1467 1468 1468 1469 1470 1471 1472 1473 1473 1474 1474 1474 1475 1475 1476 1476 1476 1475 1475 1474 1474 1473 1473 1472 1472 1471 1470 1470 1469 1468 1467 1467 1466
1491 1487 1489 1466 1460 1460 1464 1464 1465 1464 1464 1464 1465 1466 1467 1468 1468 1469 1470 1471 1471 1472 1472 1472 1472 1472 1472 1472 1472 1471 1471 1470 1469 1469 1468 1468 1467 1466 1465 1464 1463 1462 1462 1461
1490 1486 1473 1461 1459 1459 1462 1463 1460 1460 1461 1463 1463 1464 1465 1465 1466 1466 1467 1468 1468 1469 1469 1469 1469 1469 1469 1468 1468 1467 1467 1466 1466 1465 1464 1463 1463 1462 1461 1460 1459 1458 1457 1456
1486 1484 1475 1459 1457 1456 1460 1463 1457 1457 1459 1461 1462 1467 1465 1463 1463 1464 1464 1465 1465 1465 1465 1465 1465 1465 1464 1464 1464 1463 1463 1462 1462 1461 1460 1459 1458 1457 1456 1455 1454 1453 1452 1451
1484 1479 1467 1458 1457 1458 1466 1461 1456 1455 1457 1458 1460 1461 1462 1461 1461 1462 1462 1462 1462 1462 1462 1462 1461 1461 1460 1460 1460 1459 1459 1459 1458 1457 1456 1455 1454 1453 1452 1451 1449 1448 1447 1445
1478 1477 1468 1457 1457 1459 1457 1455 1454 1455 1456 1457 1457 1458 1459 1459 1459 1459 1458 1458 1458 1458 1457 1458 1457 1457 1456 1456 1456 1456 1455 1454 1454 1453 1452 1451 1449 1448 1447 1446 1445 1443 1442 1440
1463 1460 1454 1453 1452 1453 1453 1454 1454 1454 1455 1455 1455 1456 1456 1456 1456 1456 1455 1455 1454 1454 1454 1454 1454 1453 1453 1452 1452 1451 1451 1450 1450 1449 1447 1446 1445 1443 1442 1441 1439 1438 1436 1435
1455 1451 1450 1450 1450 1451 1451 1452 1452 1452 1453 1453 1453 1452 1453 1453 1452 1452 1452 1451 1451 1450 1450 1450 1450 1449 1449 1449 1448 1447 1446 1446 1445 1444 1443 1441 1440 1439 1437 1436 1434 1433 1431 1429
1452 1449 1448 1447 1448 1448 1448 1449 1449 1449 1449 1449 1449 1449 1449 1448 1448 1448 1448 1448 1447 1447 1446 1446 1445 1445 1445 1445 1444 1443 1442 1441 1440 1439 1438 1436 1435 1434 1432 1431 1430 1428 1426 1424
1448 1445 1445 1444 1445 1445 1445 1445 1445 1446 1445 1445 1445 1445 1445 1444 1444 1444 1443 1443 1443 1443 1442 1442 1441 1441 1441 1441 1440 1439 1437 1436 1435 1434 1433 1431 1429 1428 1426 1425 1424 1422 1420 1418
1441 1441 1441 1440 1441 1441 1441 1441 1441 1441 1441 1441 1440 1440 1440 1440 1440 1439 1439 1439 1438 1438 1438 1437 1437 1437 1437 1436 1435 1434 1433 1432 1430 1429 1428 1426 1424 1422 1420 1418 1417 1416 1414 1412
1437 1437 1436 1436 1437 1437 1437 1437 1437 1437 1437 1437 1436 1436 1436 1436 1435 1435 1435 1435 1434 1434 1433 1433 1432 1432 1432 1431 1430 1429 1428 1427 1425 1424 1422 1420 1418 1416 1414 1412 1410 1408 1407 1405
1433 1433 1432 1432 1432 1432 1433 1432 1432 1432 1432 1432 1432 1432 1432 1431 1431 1431 1431 1431 1430 1429 1428 1428 1428 1427 1427 1426 1425 1424 1423 1421 1420 1418 1416 1414 1412 1410 1408 1406 1404 1401 1399 1398
1428 1428 1428 1428 1428 1428 1428 1428 1428 1428 1428 1428 1428 1427 1427 1427 1427 1426 1426 1426 1425 1424 1423 1423 1423 1422 1422 1421 1420 1418 1417 1416 1414 1412 1410 1408 1406 1404 1402 1400 1397 1395 1393 1391
1423 1423 1423 1423 1423 1424 1424 1424 1424 1424 1423 1423 1423 1423 1423 1422 1421 1421 1421 1421 1420 1419 1419 1418 1418 1417 1416 1415 1414 1412 1411 1409 1408 1406 1404 1402 1400 1398 1395 1393 1391 1388 1386 1385
1419 1419 1419 1419 1420 1420 1420 1420 1420 1419 1419 1419 1419 1418 1418 1417 1416 1416 1416 1415 1415 1414 1413 1413 1412 1411 1410 1409 1408 1406 1405 1403 1402 1400 1398 1396 1394 1391 1389 1387 1384 1382 1379 1378
1415 1415 1415 1415 1415 1415 1415 1415 1415 1415 1415 1414 1414 1413 1413 1412 1412 1411 1411 1410 1409 1407 1407 1407 1406 1405 1404 1403 1402 1400 1398 1397 1395 1393 1391 1389 1387 1385 1383 1380 1378 1375 1373 1371
1412 1412 1412 1411 1411 1411 1411 1411 1411 1410 1410 1410 1409 1408 1408 1407 1407 1406 1405 1404 1403 1402 1401 1400 1400 1399 1398 1397 1396 1394 1392 1390 1388 1386 1384 1382 1380 1378 1376 1374 1371 1369 1367 1365
1410 1409 1409 1408 1408 1407 1407 1406 1406 1405 1405 1404 1404 1403 1402 1401 1401 1400 1399 1397 1396 1396 1395 1394 1393 1392 1391 1390 1388 1387 1385 1383 1381 1379 1378 1376 1374 1371 1369 1367 1365 1363 1361 1359
1407 1407 1406 1405 1404 1403 1402 1402 1401 1400 1399 1399 1398 1397 1396 1395 1395 1394 1393 1392 1390 1390 1389 1388 1387 1386 1384 1383 1381 1379 1378 1376 1374 1373 1371 1369 1367 1365 1362 1360 1358 1356 1354 1352
1405 1404 1403 1402 1401 1399 1398 1398 1397 1396 1395 1394 1393 1392 1391 1390 1389 1388 1386 1385 1385 1383 1382 1381 1380 1378 1377 1375 1374 1372 1370 1369 1367 1365 1364 1362 1360 1358 1356 1354 1352 1350 1348 1346
1402 1401 1399 1398 1397 1395 1394 1393 1392 1391 1390 1388 1387 1386 1385 1384 1382 1381 1380 1379 1378 1376 1375 1374 1372 1371 1370 1368 1366 1364 1363 1361 1360 1358 1357 1355 1353 1351 1349 1347 1345 1343 1342 1340
1398 1396 1395 1394 1392 1390 1389 1388 1386 1385 1384 1383 1381 1380 1379 1378 1376 1374 1373 1372 1371 1369 1368 1366 1365 1363 1362 1360 1359 1357 1356 1354 1353 1351 1349 1348 1346 1344 1342 1341 1339 1337 1335 1334
1393 1392 1390 1389 1387 1386 1384 1383 1381 1379 1378 1376 1375 1374 1373 1371 1370 1368 1367 1365 1364 1362 1360 1359 1357 1356 1354 1353 1351 1350 1348 1347 1345 1344 1342 1341 1339 1337 1336 1334 1332 1331 1329 1328
1388 1386 1384 1383 1381 1380 1379 1377 1375 1373 1372 1370 1368 1367 1366 1364 1363 1361 1360 1358 1356 1355 1353 1351 1350 1348 1347 1345 1344 1342 1341 1339 1338 1337 1335 1334 1332 1330 1329 1327 1326 1325 1323 1322